Location: Gorze? G�rny
(49.8500°N, 19.5000°E)
Time: 13:15:53
(UTC+00:00)

Cosmos 1680 Rocket - Pass Details

Date: 13 May 2021
Orbit: 759 x 781 km, 74.1° (Epoch: 22 June)

Event Time Altitude Azimuth Distance (km) Brightness Sun altitude
Rises 20:53:32 0° 332° (NNW) 3,278 8.5 -17.7°
Reaches altitude 10° 20:55:58 10° 328° (NNW) 2,347 7.3 -17.9°
Maximum altitude 21:01:07 52° 254° (WSW) 973 4.0 -18.2°
Enters shadow 21:03:44 27° 191° (SSW) 1,456 4.5 -18.4°
